[ hide orbit diagram ]
For accurate long-term ephemerides, please instead use our Horizons system.This orbit viewer was implemented using two-body methods, and hence should not be used for determining accurate long-term trajectories (over several years or decades) or planetary encounter circumstances.
Orbital Elements at Epoch 2459200.5 (2020-Dec-17.0) TDB
Reference: JPL 9 (heliocentric ecliptic J2000)
Element | Value | Uncertainty (1-sigma) | Units |
e | .2110351712984192 | 8.3528e-08 | |
a | 2.444911997569212 | 1.7323e-08 | au |
q | 1.928949575352633 | 2.07e-07 | au |
i | 3.676693719673892 | 7.9531e-06 | deg |
node | 329.5120627540485 | 0.00010001 | deg |
peri | 328.2623746702371 | 0.00010267 | deg |
M | 134.3829943149013 | 1.6477e-05 | deg |
tp | 2458679.263178929149 (2019-Jul-14.76317893) | 6.5574e-05 | TDB |
period | 1396.346736744047 3.82 | 1.484e-05 4.063e-08 | d yr |
n | .2578156202373026 | 2.7401e-09 | deg/d |
Q | 2.960874419785791 | 2.0979e-08 | au |
|
| | Orbit Determination Parameters
Additional Information
|
[ show covariance matrix ]
Physical Parameter Table
Parameter |
Symbol |
Value |
Units |
Sigma |
Reference |
Notes |
absolute magnitude |
H |
17.5 |
|
n/a |
MPO494121 |
|
|
199836 (2007 EE27) Discovered 2007-Mar-12 by Ries, W. at Altschwendt |
Reference: 20081113/Numbers.arc | Last Updated: 2008-11-17 |
|
|